This is the latest recevied weather packets stored in our database for station/object KI5NYZ-13. If no packets are shown the sender has not sent any weather packets the latest 1 day(s).
| Time | Temp. | Humidity | Pressure | Rain* | Wind** | Luminosity | Snow |
|---|---|---|---|---|---|---|---|
| 1778102106 | 22.78° C | 30% | 1008.9 hPa | 0 mm | - | - | - |
| 1778100306 | 22.22° C | 32% | 1009.6 hPa | 0 mm | - | - | - |
| 1778098504 | 21.11° C | 35% | 1010.3 hPa | 0 mm | - | - | - |
| 1778094903 | 18.89° C | 41% | 1011.7 hPa | 0 mm | - | - | - |
| 1778093101 | 17.22° C | 46% | 1012.5 hPa | 0 mm | - | - | - |
| 1778091301 | 16.11° C | 49% | 1013.4 hPa | 0 mm | - | - | - |
| 1778089499 | 14.44° C | 54% | 1014.4 hPa | 0 mm | - | - | - |
| 1778076892 | 8.89° C | 72% | 1016.4 hPa | 0 mm | - | - | - |
| 1778075091 | 7.78° C | 76% | 1016.2 hPa | 0 mm | - | - | - |
| 1778073290 | 7.78° C | 78% | 1015.7 hPa | 0 mm | - | - | - |
| 1778071489 | 7.22° C | 80% | 1015.6 hPa | 0 mm | - | - | - |
| 1778069688 | 7.22° C | 79% | 1015.7 hPa | 0 mm | - | - | - |
| 1778066086 | 8.89° C | 74% | 1013.8 hPa | 0 mm | - | - | - |
| 1778062484 | 11.11° C | 71% | 1012.2 hPa | 0 mm | - | - | - |
| 1778060683 | 11.67° C | 69% | 1011.5 hPa | 0 mm | - | - | - |
| 1778058882 | 11.67° C | 67% | 1010.7 hPa | 0 mm | - | - | - |
| 1778057081 | 12.22° C | 67% | 1010.3 hPa | 0 mm | - | - | - |
| 1778055280 | 12.22° C | 66% | 1009.9 hPa | 0 mm | - | - | - |
| 1778053479 | 13.89° C | 63% | 1009.5 hPa | 0 mm | - | - | - |
| 1778051678 | 15° C | 58% | 1009.1 hPa | 0 mm | - | - | - |
| 1778049877 | 16.11° C | 54% | 1008.7 hPa | 0 mm | - | - | - |
| 1778048076 | 17.22° C | 50% | 1007.9 hPa | 0 mm | - | - | - |
| 1778046275 | 17.22° C | 48% | 1007.3 hPa | 0 mm | - | - | - |
| 1778044474 | 18.89° C | 41% | 1006.1 hPa | 0 mm | - | - | - |
| 1778042035 | 20° C | 38% | 1005.6 hPa | 0 mm | - | - | - |
* Rain latest hour (hover to see other rain measurements)
** Current wind speed in m/s (hover to see current wind gust speed)